Notices

What's New in latest Release from April 7th, 2021:

- Updated Glossary, including Speed of Maximum Gust, and Total Hourly Precipitation

- Updated national and regional climate services offices contacts and prices information

- Addition of station inventory lists for 1981-2010, 1971-2000, and 1961-1990 Normals.

If you haven't already, please take our survey and provide feedback about our website: https://eccc.sondage-survey.ca/f/LanguageSelection.aspx?s=442ca660-fcf1-47c0-95a9-59707d6fd709

Hourly Data Report for July 08, 2018

OTTAWA INTL A
ONTARIO
Current Station Operator: NAVCAN

45°19'00.000" N
75°40'00.000" W
114.90 m
6106001
71628
YOW

Download Data

Hourly Data (July 2018)
Hourly Data Report for July 8, 2018
TIME
LST
Temp Definition
°C
Dew Point Definition
°C
Rel Hum Definition
%
Precip. Amount Definition
mm

Wind Dir Definition
10's deg

Wind Spd Definition
km/h
Visibility Definition
km
Stn Press Definition
kPa
Hmdx Definition


Wind Chill Definition


Weather Definition


00:00 16.8 10.8 67   18 8 24.1 101.15     LegendNANA
01:00 16.5 10.8 69   20 9 24.1 101.10     Mainly Clear
02:00 15.3 10.6 73   19 10 24.1 101.06     LegendNANA
03:00 14.6 10.4 76   21 7 24.1 101.12     LegendNANA
04:00 13.8 10.1 78   18 5 24.1 101.19     Mainly Clear
05:00 14.4 9.9 74   19 8 24.1 101.24     LegendNANA
06:00 15.5 10.2 71   19 9 24.1 101.29     LegendNANA
07:00 18.1 11.1 63   20 10 24.1 101.30     Mainly Clear
08:00 21.4 11.3 52   24 14 24.1 101.30     LegendNANA
09:00 24.9 11.2 42   26 17 24.1 101.28 27   LegendNANA
10:00 26.7 10.7 36   25 20 24.1 101.25 28   Mostly Cloudy
11:00 27.6 11.0 35   21 23 24.1 101.21 29   LegendNANA
12:00 28.8 10.9 32   22 22 24.1 101.13 31   LegendNANA
13:00 29.3 10.5 30   23 23 24.1 101.04 31   Mainly Clear
14:00 29.9 10.7 30   21 25 24.1 100.93 32   LegendNANA
15:00 30.5 10.6 29   22 25 24.1 100.89 32   LegendNANA
16:00 29.3 12.6 35   20 35 24.1 100.81 32   Mainly Clear
17:00 29.1 12.9 36   22 23 24.1 100.83 32   LegendNANA
18:00 27.7 13.1 40   20 19 24.1 100.80 31   LegendNANA
19:00 26.0 12.9 44   19 17 24.1 100.80 29   Mostly Cloudy
20:00 23.7 12.0 47   19 16 24.1 100.77 26   LegendNANA
21:00 21.8 11.2 51   20 16 24.1 100.79     LegendNANA
22:00 20.5 11.9 58   21 15 24.1 100.78     Mainly Clear
23:00 19.8 12.4 62   21 11 24.1 100.82     LegendNANA

Notes on Data Quality.

Legend

  • E = Estimated
  • M = Missing
  • NA = Not Available*
  • [empty] = Indicates an unobserved value
Date modified: